SCP
0 0 0 0 0 0 0 0 0 0 0 0 0 0 0 0 0 0 0 0 0 0 0 0 0 0 0 0 0 0 0 0 0 0 0 0 0 0 0 0 0 0 0 0 0 0 0 0 0 -0 -0 -0 0 0
0 0 0 0 0 0 0 0 0 0 0 0 0 0 0 0 0 0 0 0 0 0 0 0 0 0 0 0 0 0 0 0 0 0 0 0 0 0 0 0 0 0 0 0 0 0 0 0 -0 0 0 -0 0 0
0 0 0 0 0 0 0 0 0 0 0 0 0 0 0 0 0 0 0 0 0 0 0 0 0 0 0 0 0 0 0 0 0 0 0 0 0 0 0 0 0 0 0 0 0 0 0 0 0 0 0 -0 0 0
0 0 0 0 0 0 0 0 0 0 0 0 0 0 0 0 0 0 0 0 0 0 0 0 0 0 0 0 0 0 0 0 0 0 0 -0 0 0 0 0 0 0 0 0 0 0 0 0 0 0 -0 -0 0 0
0 0 0 0 0 0 0 0 0 0 0 0 0 0 0 0 0 0 0 0 0 0 0 0 0 0 0 0 0 0 0 0 0 0 0 0 -0 0 0 0 -0 -0 -0 -0 0 0 0 0 0 0 0 0 0 0
0 0 0 0 0 0 0 0 0 0 0 0 0 0 0 0 0 0 0 0 0 0 0 0 0 0 0 0 0 0 0 0 0 0 0 0 0 0 0 0 0 0 0 0 0 0 0 0 0 0 0 0 0 0
0 0 0 0 0 0 0 0 0 0 0 0 0 0 0 0 0 0 0 0 0 0 0 0 0 0 0 0 0 0 0 0 0 0 0 0 0 0 0 0 0 0 0 0 0 0 0 0 0 0 0 0 0 0
0 0 0 0 0 0 0 0 0 0 0 0 0 0 0 0 0 0 0 0 0 0 0 0 0 0 0 0 0 0 0 0 0 0 0 0 0 0 0 -0 0 -0 0 0 0 0 0 -0 -0 0 0 0 0 0
0 0 0 0 0 0 0 0 0 0 0 0 0 0 0 0 0 0 0 0 0 0 0 0 0 0 0 0 0 0 0 0 0 0 0 0 0 0 -0 0 0 0 0 0 -0 -0 0 0 0 -0 -0 -0 0 0
0 0 0 0 0 0 0 0 0 0 0 0 0 0 0 0 0 0 0 0 0 0 0 0 0 0 0 0 0 0 0 0 0 0 0 0 0 0 -0 0 0 0 0 0 0 -0 0 0 0 0 0 0 0 0
0 0 0 0 0 0 0 0 0 0 0 0 0 0 0 0 0 0 0 0 0 0 0 0 0 0 0 0 0 0 0 0 0 0 0 -0 0 0 0 0 0 -0 -0 -0 0 -0 -0 -0 0 0 0 0 0 0
0 0 0 0 0 0 0 0 0 0 0 0 0 0 0 0 0 0 0 0 0 0 0 0 0 0 0 0 0 0 0 0 0 0 0 -0 0 0 0 0 0 0 -0 0 -0 -0 0 0 0 -0 -0 -0 0 0
0 0 0 0 0 0 0 0 0 0 0 0 0 0 0 0 0 0 0 0 0 0 0 0 0 0 0 0 0 0 0 0 0 0 0 0 0 0 0 0 0 0 0 0 -0 -0 -0 0 -0 -0 -0 -0 0 0
0 -0 -0 0 0 0 0 0 0 0 0 0 0 0 0 0 0 0 0 0 0 0 0 0 0 0 0 0 0 0 0 0 0 0 0 0 0 0 0 0 0 0 0 0 0 -0 -0 -0 -0 -0 -0 -0 0 0
-0 -0 -0 0 0 0 0 0 0 0 0 0 0 0 0 0 0 0 0 0 0 0 0 0 0 0 0 0 0 0 0 0 0 0 0 0 0 0 0 0 0 0 0 0 0 0 0 0 0 0 0 0 0 0
0 0 0 0 0 0 0 0 0 0 0 0 0 0 0 0 0 0 0 0 0 0 0 0 0 0 0 0 0 0 0 0 0 0 -0 0 0 0 0 0 0 0 0 0 0 0 0 0 0 0 0 0 0 0
0 0 0 0 0 0 0 0 0 0 0 0 0 0 0 0 0 0 0 0 0 0 0 0 0 0 0 0 0 0 0 0 0 0 0 0 0 0 0 0 0 0 0 0 0 0 0 0 0 0 0 0 0 0
0 0 0 0 0 0 0 0 0 0 0 0 0 0 0 0 0 0 0 0 0 0 0 0 0 0 0 0 0 0 0 0 0 0 0 0 0 0 0 0 0 0 0 0 0 0 0 0 0 0 0 0 0 0
0 0 0 0 0 0 0 0 0 0 0 0 0 0 0 0 0 0 0 0 0 0 0 0 0 0 0 0 0 0 0 0 0 0 0 0 0 0 0 0 0 0 0 0 0 0 0 0 0 0 0 0 0 0
0 0 0 0 0 0 0 0 0 0 0 0 -0 0 0 0 0 0 0 0 0 0 0 0 0 0 0 0 0 0 0 0 0 0 0 0 0 0 0 0 0 0 0 0 0 0 0 0 0 0 0 0 0 0
0 0 0 0 0 0 0 0 0 0 0 0 0 -0 0 0 0 0 0 0 0 0 0 0 0 0 0 0 0 0 0 0 0 0 0 0 0 0 0 0 0 0 0 0 0 0 0 0 0 0 0 0 0 0
0 0 0 0 0 0 0 0 0 0 0 0 0 0 0 0 0 0 0 0 0 0 0 0 0 0 0 0 0 0 0 0 0 0 0 0 0 0 0 0 0 0 0 0 0 0 0 0 0 0 0 0 0 0
0 0 0 0 0 0 0 0 0 0 0 0 0 0 0 0 0 0 0 0 0 0 0 0 0 0 0 0 0 0 0 0 0 0 0 0 0 0 0 0 0 0 0 0 0 0 0 0 0 0 0 0 0 0
0 0 0 0 0 0 0 0 0 0 0 0 0 0 0 0 0 0 0 0 0 0 0 0 0 0 0 0 0 0 0 0 0 0 0 0 0 0 0 0 0 0 0 0 0 0 0 0 0 0 0 0 0 0
0 0 0 0 0 0 0 0 0 0 0 0 0 0 0 0 0 0 0 0 0 0 0 0 0 0 0 0 0 0 0 0 0 0 0 0 0 0 0 0 0 0 0 0 0 0 0 0 0 0 0 0 0 0
0 0 0 0 0 0 0 0 0 0 0 0 0 0 0 0 0 0 0 0 0 0 0 0 0 0 0 0 0 0 0 0 0 0 0 0 0 0 0 0 0 0 0 0 0 0 0 0 0 0 0 0 0 0
0 0 0 0 0 0 0 0 0 0 0 0 0 0 0 0 0 0 0 0 0 0 0 0 0 0 0 0 0 0 0 0 0 0 0 0 0 0 0 0 0 0 0 0 0 0 0 0 0 0 0 0 0 0
0 0 0 0 0 0 0 0 0 0 0 0 0 0 0 0 0 0 0 0 0 0 0 0 0 0 0 0 0 0 0 0 0 0 0 0 0 0 0 0 0 0 0 0 0 0 0 0 0 0 0 0 0 0
0 0 0 0 0 0 -0 -0 -0 0 0 0 0 0 0 0 0 0 0 0 0 0 0 0 0 0 0 0 0 0 0 0 0 0 0 0 0 0 0 0 0 0 0 0 0 0 0 0 0 0 0 0 0 0
0 0 0 0 0 -0 -0 -0 -0 0 0 0 -0 -0 -0 -0 -0 -0 0 0 0 0 0 0 0 0 0 0 0 0 0 0 0 0 0 0 0 0 0 0 0 0 0 0 0 0 0 0 0 0 0 0 0 0
0 0 0 0 0 0 0 0 0 0 0 -0 -0 -0 -0 -0 -0 -0 -0 0 0 0 0 0 0 0 0 0 0 0 0 0 0 0 0 0 0 0 0 0 0 0 0 0 0 0 0 0 0 0 0 0 0 0
0 0 0 0 0 0 0 -0 -0 -0 -0 -0 -0 -0 0 -0 -0 -0 -0 0 0 0 0 0 0 0 0 0 0 0 0 0 0 0 0 0 0 0 0 0 0 0 0 0 0 0 0 0 0 0 0 0 0 0
0 0 0 0 0 0 0 -0 -0 -0 -0 -0 -0 -0 0 -0 -0 -0 -0 0 0 0 0 0 0 0 0 0 0 0 0 0 0 0 0 0 0 0 0 0 0 0 0 0 0 0 0 0 0 0 0 0 0 0
Wind_Speed_500mb
81 81 78 70 68 59 60 58 52 52 57 60 84 95 102 125 123 128 87 73 68 28 26 40 28 26 27 23 9 18 11 5 6 4 7 6 6 9 2 8 12 15 13 8 3 5 16 13 4 8 5 16 22 33
80 78 71 72 66 67 59 58 52 52 56 57 65 84 114 130 129 127 81 79 74 37 20 37 31 28 35 32 27 39 5 12 21 7 1 6 3 2 5 7 5 5 13 8 18 15 10 4 16 20 36 44 42 40
81 77 76 76 67 63 60 58 50 50 54 55 62 100 115 131 128 125 92 94 71 42 13 25 25 28 30 28 32 17 13 17 14 11 15 4 6 8 7 12 2 11 13 7 3 11 19 33 53 60 58 58 57 56
79 75 75 69 67 60 63 59 49 48 48 42 60 96 114 128 127 127 101 101 80 30 11 12 21 27 31 31 31 30 13 24 16 15 6 5 5 18 6 6 9 12 19 11 13 30 44 26 7 16 15 15 19 18
74 73 69 66 65 58 54 54 50 47 46 41 44 87 115 128 121 126 96 99 82 46 14 14 22 20 23 29 27 26 23 22 15 9 5 5 7 3 4 3 10 24 15 12 16 29 13 13 5 12 17 14 7 11
69 67 67 62 65 60 55 51 48 47 45 45 40 84 116 122 131 107 22 81 88 72 10 5 10 14 18 17 18 21 22 19 13 8 6 7 7 5 2 7 22 49 50 62 14 19 27 26 19 16 5 12 13 6
65 65 63 63 64 62 55 47 46 46 42 53 36 66 110 136 124 100 27 45 98 63 22 8 4 11 19 20 15 17 18 9 9 5 7 6 7 8 5 10 22 35 49 59 58 51 32 44 29 25 23 20 10 11
61 61 59 59 60 54 55 42 41 40 52 55 28 42 121 125 99 68 24 42 99 52 22 8 2 7 25 11 9 13 13 14 10 4 5 7 5 9 12 36 49 28 23 43 51 53 60 42 25 14 12 12 11 8
59 56 55 54 48 48 48 44 38 39 38 60 26 25 112 96 63 56 48 93 74 24 22 12 14 9 27 10 10 10 10 2 4 3 7 8 5 15 23 36 53 42 26 15 19 36 47 50 47 48 46 37 27 15
57 54 50 51 48 46 42 37 37 36 26 52 36 40 19 46 92 81 50 22 18 13 14 6 21 7 20 9 5 10 6 4 4 7 6 4 10 69 85 72 67 40 20 35 27 19 25 44 46 37 35 30 30 24
55 53 50 46 46 44 46 35 33 28 30 35 23 11 54 100 77 16 18 15 14 9 24 19 17 15 21 7 6 8 5 2 1 6 8 5 9 13 16 24 39 73 77 40 31 24 7 8 15 25 30 32 32 32
55 52 47 47 46 45 42 38 40 39 16 22 26 57 73 20 10 13 10 8 9 14 21 19 25 21 20 14 12 8 7 3 10 7 3 7 11 44 33 29 24 18 38 73 70 39 28 16 17 14 11 19 28 29
53 50 46 44 45 44 41 41 47 39 27 55 18 33 15 13 9 16 17 6 10 18 31 36 11 22 16 11 14 6 8 9 11 2 9 11 24 21 14 14 15 25 18 31 58 74 68 53 35 21 15 9 15 17
53 49 45 44 42 46 40 41 42 41 41 8 13 13 10 10 13 11 17 13 21 46 74 70 25 14 13 8 6 9 1 4 2 4 13 8 48 39 17 16 30 19 18 20 29 43 53 56 48 34 27 24 22 28
50 48 45 41 43 44 41 42 45 33 11 9 9 10 11 5 10 15 49 48 43 88 80 37 20 13 4 9 4 10 6 11 13 11 11 26 44 34 27 28 25 26 22 21 20 24 34 44 49 45 41 36 27 19
48 42 44 43 42 41 38 42 38 30 8 9 3 6 4 9 3 10 36 49 72 80 72 23 9 8 7 12 8 17 13 14 9 10 30 11 15 33 33 23 21 28 24 19 20 24 27 29 31 33 31 26 24 28
49 26 50 44 42 42 42 36 8 13 8 6 3 12 17 7 15 17 60 62 95 81 20 8 14 16 10 5 7 12 12 12 21 25 29 31 23 17 18 21 23 31 32 26 24 26 30 31 30 29 31 40 39 37
49 41 48 47 48 47 40 21 5 9 9 19 6 4 24 7 35 39 37 89 69 48 31 11 24 8 15 17 9 9 42 57 43 36 26 20 17 23 21 19 17 29 27 23 24 32 31 29 32 43 45 47 49 45
43 38 49 49 51 19 8 9 6 1 8 8 3 8 11 7 46 48 67 96 55 71 48 19 9 10 10 9 11 37 50 49 52 49 51 32 19 20 19 23 24 27 27 26 27 29 31 41 44 48 52 50 44 37
31 32 43 44 48 9 8 7 12 4 3 7 3 7 3 4 36 40 65 52 47 28 9 9 10 16 25 38 41 46 38 35 34 26 25 33 25 21 22 19 21 27 31 33 36 46 53 54 57 56 51 44 34 25
32 35 42 45 22 7 6 10 7 1 4 6 7 13 10 20 28 25 51 35 20 12 5 23 28 25 23 37 49 39 31 29 26 23 20 36 42 29 22 24 29 32 38 45 50 55 56 55 56 52 45 35 27 20
29 33 31 39 7 9 6 6 7 2 4 2 9 10 10 3 9 22 42 29 15 35 42 38 31 37 42 34 26 27 35 28 27 23 22 16 20 42 47 35 35 38 43 48 53 55 58 57 53 47 39 30 20 9
29 21 7 10 6 3 4 9 6 8 2 5 6 4 0 3 20 40 10 15 25 47 58 38 27 33 47 42 35 32 37 38 33 31 28 14 10 16 37 51 46 42 45 49 51 56 60 57 54 45 35 24 15 13
21 9 4 6 5 3 5 3 3 1 1 1 3 6 4 5 32 4 6 9 43 61 56 63 35 33 39 50 49 46 40 34 32 36 35 34 31 20 19 33 38 42 46 52 59 63 62 59 50 41 32 25 20 18
9 2 5 3 5 8 4 2 3 2 6 6 3 5 5 10 3 6 7 9 51 77 83 66 76 66 49 51 54 52 47 43 33 20 20 28 30 30 30 32 37 42 47 55 63 65 61 54 49 42 36 30 22 17
5 3 6 7 2 7 9 8 9 13 7 6 9 1 3 5 5 12 8 32 50 74 82 85 79 79 76 63 59 64 59 50 38 29 32 33 24 19 25 37 46 54 58 60 59 61 62 60 54 49 41 32 24 21
6 7 6 7 7 11 3 3 3 4 7 10 5 6 5 8 11 9 15 43 62 66 73 76 83 83 89 77 70 64 63 52 46 43 41 33 34 32 27 31 47 57 61 62 59 57 61 59 55 49 40 32 27 24
3 14 10 13 5 4 8 3 5 8 8 6 11 9 10 14 11 9 22 36 53 55 64 78 86 84 76 74 72 68 62 57 58 52 45 40 37 39 33 33 38 47 46 60 54 48 49 51 49 43 39 34 30 27
0 6 11 4 4 4 9 9 7 6 6 7 5 6 8 11 18 20 26 37 49 50 53 65 70 76 78 73 68 68 68 65 65 62 56 50 48 47 44 39 43 47 46 46 51 43 44 49 47 41 37 33 30 28
4 4 3 3 11 12 10 24 11 18 18 15 12 15 26 46 55 52 35 34 43 48 42 47 51 58 72 77 77 75 74 71 71 73 74 68 64 54 56 54 54 52 47 46 48 51 54 50 45 43 39 35 32 31
11 4 3 6 7 7 14 23 22 22 21 17 28 28 21 18 27 37 31 26 29 35 36 41 47 51 52 58 66 70 72 72 72 69 63 57 52 50 48 53 57 57 54 55 50 43 38 38 36 34 35 35 34 32
8 7 4 4 7 7 10 9 8 10 11 16 16 19 9 8 10 13 15 17 24 28 31 35 39 42 48 51 54 56 54 61 62 62 55 49 46 47 50 52 53 53 51 47 44 44 40 36 37 40 40 39 37 34
10 7 7 6 7 5 9 11 9 7 11 10 16 17 19 17 9 10 9 15 20 22 24 28 30 34 39 43 43 44 40 43 48 46 41 37 34 37 41 43 44 44 45 44 42 39 39 40 43 44 43 40 38 35
Wind_Direction_500mb
235 235 234 229 232 236 240 241 242 236 235 232 226 223 227 208 203 205 199 193 198 204 191 189 186 161 161 176 149 149 101 213 63 125 143 212 166 219 81 213 185 174 166 208 155 213 273 227 244 193 193 292 302 317
231 234 233 232 230 234 237 241 241 233 236 229 227 223 224 207 202 204 195 191 191 207 193 201 199 195 197 197 166 169 179 165 171 91 273 97 202 160 168 266 307 280 198 183 189 221 233 224 257 269 295 289 293 289
228 230 229 233 225 233 232 239 241 237 231 225 225 217 221 203 202 205 198 188 181 191 174 181 192 192 193 191 191 161 196 177 190 187 157 170 222 133 189 238 226 239 192 219 19 263 247 272 293 291 282 277 285 283
225 223 224 231 223 227 226 235 237 236 237 223 223 212 216 201 202 202 197 194 181 174 143 187 193 193 200 199 201 208 195 184 173 178 155 139 169 191 234 260 219 211 153 191 265 284 282 282 288 11 37 327 278 269
220 218 220 226 217 227 220 229 234 233 238 231 221 210 211 200 199 198 195 190 180 168 157 150 190 198 200 205 210 209 204 185 172 158 113 227 217 156 258 350 248 185 197 178 220 237 236 263 353 340 359 11 275 281
213 212 217 219 219 219 222 226 228 224 244 215 213 198 201 195 187 191 157 187 185 187 146 111 171 184 191 192 199 192 188 186 185 183 211 254 240 218 270 253 245 215 212 218 224 237 246 267 285 315 325 29 14 263
209 210 215 213 218 215 217 210 225 216 245 219 203 205 196 185 190 178 195 195 177 181 160 102 84 143 160 149 151 153 169 177 189 197 218 238 230 228 245 247 248 243 243 235 235 245 264 261 263 272 274 300 315 7
204 208 207 214 207 212 209 206 221 217 235 213 196 205 186 192 181 183 173 170 168 163 151 128 83 131 170 156 139 149 155 175 196 211 225 212 199 223 255 245 259 260 254 249 244 237 243 251 258 242 257 273 306 307
202 201 202 202 203 207 199 200 209 211 221 206 186 201 173 165 162 172 150 159 167 160 142 145 146 187 165 141 128 135 165 112 209 196 236 167 231 227 233 247 260 263 232 239 215 227 232 239 247 252 257 262 277 298
193 193 192 197 201 208 199 196 194 205 204 192 168 146 161 168 171 145 136 144 159 177 141 114 128 143 157 141 106 115 151 180 210 240 183 212 252 253 251 251 255 252 239 227 225 229 224 230 236 242 245 250 253 247
187 187 190 193 196 200 204 191 197 194 202 196 160 121 146 151 144 115 141 159 149 168 166 148 147 135 176 139 147 190 167 161 196 245 169 260 271 247 263 258 254 247 241 238 235 234 190 201 222 232 236 238 236 233
187 188 190 196 198 192 185 196 188 205 201 182 160 133 142 168 132 126 139 122 170 186 158 141 143 127 143 143 111 169 131 87 235 136 86 262 251 258 261 268 266 249 233 228 227 224 219 230 239 222 238 235 226 227
184 186 190 190 190 193 192 207 185 209 193 140 136 171 180 176 127 154 154 190 162 163 159 151 119 133 134 144 94 133 130 212 128 174 231 236 263 266 259 287 278 251 239 228 226 228 230 235 235 231 222 194 180 199
181 183 187 185 184 186 191 203 194 197 175 202 169 157 199 168 192 182 188 138 140 146 148 148 117 138 130 107 144 131 131 92 265 262 238 238 251 267 252 286 234 229 219 225 224 223 223 221 221 223 219 219 233 262
179 180 181 182 181 187 190 202 187 200 232 244 196 173 180 141 12 112 123 121 133 147 141 125 87 109 98 104 46 101 62 244 214 234 229 244 250 277 258 263 238 222 222 216 215 210 208 213 217 222 228 241 244 231
177 174 181 180 181 185 189 200 174 165 231 269 232 81 21 84 31 167 133 123 144 149 142 130 120 109 170 129 118 209 160 219 239 218 233 336 271 251 273 275 254 224 220 220 208 196 193 192 194 197 196 196 189 166
172 175 179 178 176 176 187 196 164 152 170 274 226 197 171 125 180 182 154 150 156 151 159 133 125 182 107 105 212 181 199 223 214 239 259 263 285 293 280 254 256 217 206 210 208 195 181 177 178 182 179 162 155 147
178 179 174 172 170 174 176 182 118 175 192 235 230 152 196 185 164 160 155 155 159 168 155 169 127 149 172 177 228 221 232 240 238 247 258 272 276 259 266 236 219 202 215 217 208 196 190 184 175 157 156 151 145 141
171 166 166 170 174 125 91 136 143 255 265 303 296 282 182 203 177 177 170 170 176 171 144 145 144 177 204 209 199 214 221 230 244 254 254 248 267 249 230 215 211 205 206 200 189 185 178 162 158 154 150 148 145 144
158 165 172 177 184 110 117 107 172 227 268 310 117 147 97 135 175 182 169 177 178 162 170 184 205 191 183 199 216 225 227 227 230 235 245 225 228 228 219 221 215 204 196 191 180 171 167 164 159 156 154 152 154 156
151 155 165 171 145 100 122 156 144 249 302 265 187 149 105 140 136 151 177 184 191 222 221 206 201 192 186 207 223 219 210 215 218 227 233 216 217 216 222 214 202 201 199 186 178 174 172 167 161 160 161 166 174 178
144 170 124 145 100 152 129 167 114 209 262 251 193 159 132 130 135 160 178 206 245 212 209 204 203 198 204 205 200 205 215 202 187 195 209 211 222 226 224 223 211 201 194 189 184 179 169 169 168 171 177 181 180 198
156 174 77 92 103 154 147 160 158 162 133 243 179 126 158 192 170 152 188 226 236 215 216 220 216 206 211 201 198 200 196 200 206 209 195 202 265 271 227 218 217 206 194 187 183 177 176 176 181 186 186 188 203 244
155 146 107 118 113 167 128 90 191 212 149 106 183 175 228 205 169 179 208 235 217 215 220 223 212 218 213 208 204 204 203 205 202 214 228 238 243 246 223 218 217 208 202 187 182 181 185 188 190 193 198 207 224 243
110 74 137 53 103 89 81 41 286 104 196 194 135 269 220 165 184 217 214 254 216 214 218 220 223 225 225 217 207 202 193 184 187 197 203 207 209 212 217 220 212 205 195 190 189 189 191 196 201 207 213 220 232 243
121 203 158 186 309 134 190 170 206 205 157 177 222 22 18 159 161 235 219 216 220 223 220 218 218 217 219 222 213 201 194 197 200 207 207 209 216 235 239 222 206 198 196 196 199 199 204 208 211 216 218 223 235 244
122 226 159 156 155 138 65 322 320 100 157 199 198 153 154 204 220 246 222 208 214 220 222 227 229 229 226 219 220 218 209 211 218 225 223 231 232 228 238 239 223 203 197 198 202 209 217 218 217 218 220 225 230 237
113 169 155 177 136 171 144 145 180 236 236 146 124 191 209 207 216 265 221 221 219 219 213 212 218 224 224 226 223 219 219 221 222 224 228 227 226 227 230 230 214 210 209 204 203 211 218 223 224 223 226 228 230 227
217 159 145 102 87 170 198 186 215 245 186 140 151 277 261 291 270 269 258 247 230 226 217 211 211 214 216 218 217 218 220 221 218 217 220 221 219 223 224 219 204 195 203 206 202 202 213 217 217 221 226 225 223 218
354 167 95 162 156 211 230 204 222 197 216 244 249 266 273 275 284 288 274 262 237 229 230 222 212 212 214 212 211 211 214 215 219 223 227 225 225 224 218 214 212 201 207 218 212 211 205 205 210 214 214 210 206 201
316 267 246 208 232 243 234 227 242 259 260 251 251 243 253 285 292 286 263 255 243 232 224 218 211 211 209 211 212 212 211 212 213 217 221 225 229 223 218 215 213 213 203 206 207 209 213 208 206 206 203 200 193 187
289 236 173 258 277 248 245 234 234 227 222 213 229 213 246 226 263 263 253 227 221 211 210 205 201 207 205 201 202 206 211 215 213 215 217 219 218 215 213 209 205 205 203 198 194 190 203 212 202 195 190 182 179 178
281 267 256 282 322 286 226 217 236 249 218 225 218 197 204 200 238 253 229 190 199 196 197 193 192 192 193 193 194 196 200 202 203 203 204 205 205 206 202 198 194 191 190 187 191 200 197 191 184 178 174 174 172 170
Wind_Speed_850mb
81 81 78 70 68 59 60 58 52 52 57 60 84 95 102 125 123 128 87 73 68 28 26 40 28 26 27 23 9 18 11 5 6 4 7 6 6 9 2 8 12 15 13 8 3 5 16 13 4 8 5 16 22 33
80 78 71 72 66 67 59 58 52 52 56 57 65 84 114 130 129 127 81 79 74 37 20 37 31 28 35 32 27 39 5 12 21 7 1 6 3 2 5 7 5 5 13 8 18 15 10 4 16 20 36 44 42 40
81 77 76 76 67 63 60 58 50 50 54 55 62 100 115 131 128 125 92 94 71 42 13 25 25 28 30 28 32 17 13 17 14 11 15 4 6 8 7 12 2 11 13 7 3 11 19 33 53 60 58 58 57 56
79 75 75 69 67 60 63 59 49 48 48 42 60 96 114 128 127 127 101 101 80 30 11 12 21 27 31 31 31 30 13 24 16 15 6 5 5 18 6 6 9 12 19 11 13 30 44 26 7 16 15 15 19 18
74 73 69 66 65 58 54 54 50 47 46 41 44 87 115 128 121 126 96 99 82 46 14 14 22 20 23 29 27 26 23 22 15 9 5 5 7 3 4 3 10 24 15 12 16 29 13 13 5 12 17 14 7 11
69 67 67 62 65 60 55 51 48 47 45 45 40 84 116 122 131 107 22 81 88 72 10 5 10 14 18 17 18 21 22 19 13 8 6 7 7 5 2 7 22 49 50 62 14 19 27 26 19 16 5 12 13 6
65 65 63 63 64 62 55 47 46 46 42 53 36 66 110 136 124 100 27 45 98 63 22 8 4 11 19 20 15 17 18 9 9 5 7 6 7 8 5 10 22 35 49 59 58 51 32 44 29 25 23 20 10 11
61 61 59 59 60 54 55 42 41 40 52 55 28 42 121 125 99 68 24 42 99 52 22 8 2 7 25 11 9 13 13 14 10 4 5 7 5 9 12 36 49 28 23 43 51 53 60 42 25 14 12 12 11 8
59 56 55 54 48 48 48 44 38 39 38 60 26 25 112 96 63 56 48 93 74 24 22 12 14 9 27 10 10 10 10 2 4 3 7 8 5 15 23 36 53 42 26 15 19 36 47 50 47 48 46 37 27 15
57 54 50 51 48 46 42 37 37 36 26 52 36 40 19 46 92 81 50 22 18 13 14 6 21 7 20 9 5 10 6 4 4 7 6 4 10 69 85 72 67 40 20 35 27 19 25 44 46 37 35 30 30 24
55 53 50 46 46 44 46 35 33 28 30 35 23 11 54 100 77 16 18 15 14 9 24 19 17 15 21 7 6 8 5 2 1 6 8 5 9 13 16 24 39 73 77 40 31 24 7 8 15 25 30 32 32 32
55 52 47 47 46 45 42 38 40 39 16 22 26 57 73 20 10 13 10 8 9 14 21 19 25 21 20 14 12 8 7 3 10 7 3 7 11 44 33 29 24 18 38 73 70 39 28 16 17 14 11 19 28 29
53 50 46 44 45 44 41 41 47 39 27 55 18 33 15 13 9 16 17 6 10 18 31 36 11 22 16 11 14 6 8 9 11 2 9 11 24 21 14 14 15 25 18 31 58 74 68 53 35 21 15 9 15 17
53 49 45 44 42 46 40 41 42 41 41 8 13 13 10 10 13 11 17 13 21 46 74 70 25 14 13 8 6 9 1 4 2 4 13 8 48 39 17 16 30 19 18 20 29 43 53 56 48 34 27 24 22 28
50 48 45 41 43 44 41 42 45 33 11 9 9 10 11 5 10 15 49 48 43 88 80 37 20 13 4 9 4 10 6 11 13 11 11 26 44 34 27 28 25 26 22 21 20 24 34 44 49 45 41 36 27 19
48 42 44 43 42 41 38 42 38 30 8 9 3 6 4 9 3 10 36 49 72 80 72 23 9 8 7 12 8 17 13 14 9 10 30 11 15 33 33 23 21 28 24 19 20 24 27 29 31 33 31 26 24 28
49 26 50 44 42 42 42 36 8 13 8 6 3 12 17 7 15 17 60 62 95 81 20 8 14 16 10 5 7 12 12 12 21 25 29 31 23 17 18 21 23 31 32 26 24 26 30 31 30 29 31 40 39 37
49 41 48 47 48 47 40 21 5 9 9 19 6 4 24 7 35 39 37 89 69 48 31 11 24 8 15 17 9 9 42 57 43 36 26 20 17 23 21 19 17 29 27 23 24 32 31 29 32 43 45 47 49 45
43 38 49 49 51 19 8 9 6 1 8 8 3 8 11 7 46 48 67 96 55 71 48 19 9 10 10 9 11 37 50 49 52 49 51 32 19 20 19 23 24 27 27 26 27 29 31 41 44 48 52 50 44 37
31 32 43 44 48 9 8 7 12 4 3 7 3 7 3 4 36 40 65 52 47 28 9 9 10 16 25 38 41 46 38 35 34 26 25 33 25 21 22 19 21 27 31 33 36 46 53 54 57 56 51 44 34 25
32 35 42 45 22 7 6 10 7 1 4 6 7 13 10 20 28 25 51 35 20 12 5 23 28 25 23 37 49 39 31 29 26 23 20 36 42 29 22 24 29 32 38 45 50 55 56 55 56 52 45 35 27 20
29 33 31 39 7 9 6 6 7 2 4 2 9 10 10 3 9 22 42 29 15 35 42 38 31 37 42 34 26 27 35 28 27 23 22 16 20 42 47 35 35 38 43 48 53 55 58 57 53 47 39 30 20 9
29 21 7 10 6 3 4 9 6 8 2 5 6 4 0 3 20 40 10 15 25 47 58 38 27 33 47 42 35 32 37 38 33 31 28 14 10 16 37 51 46 42 45 49 51 56 60 57 54 45 35 24 15 13
21 9 4 6 5 3 5 3 3 1 1 1 3 6 4 5 32 4 6 9 43 61 56 63 35 33 39 50 49 46 40 34 32 36 35 34 31 20 19 33 38 42 46 52 59 63 62 59 50 41 32 25 20 18
9 2 5 3 5 8 4 2 3 2 6 6 3 5 5 10 3 6 7 9 51 77 83 66 76 66 49 51 54 52 47 43 33 20 20 28 30 30 30 32 37 42 47 55 63 65 61 54 49 42 36 30 22 17
5 3 6 7 2 7 9 8 9 13 7 6 9 1 3 5 5 12 8 32 50 74 82 85 79 79 76 63 59 64 59 50 38 29 32 33 24 19 25 37 46 54 58 60 59 61 62 60 54 49 41 32 24 21
6 7 6 7 7 11 3 3 3 4 7 10 5 6 5 8 11 9 15 43 62 66 73 76 83 83 89 77 70 64 63 52 46 43 41 33 34 32 27 31 47 57 61 62 59 57 61 59 55 49 40 32 27 24
3 14 10 13 5 4 8 3 5 8 8 6 11 9 10 14 11 9 22 36 53 55 64 78 86 84 76 74 72 68 62 57 58 52 45 40 37 39 33 33 38 47 46 60 54 48 49 51 49 43 39 34 30 27
0 6 11 4 4 4 9 9 7 6 6 7 5 6 8 11 18 20 26 37 49 50 53 65 70 76 78 73 68 68 68 65 65 62 56 50 48 47 44 39 43 47 46 46 51 43 44 49 47 41 37 33 30 28
4 4 3 3 11 12 10 24 11 18 18 15 12 15 26 46 55 52 35 34 43 48 42 47 51 58 72 77 77 75 74 71 71 73 74 68 64 54 56 54 54 52 47 46 48 51 54 50 45 43 39 35 32 31
11 4 3 6 7 7 14 23 22 22 21 17 28 28 21 18 27 37 31 26 29 35 36 41 47 51 52 58 66 70 72 72 72 69 63 57 52 50 48 53 57 57 54 55 50 43 38 38 36 34 35 35 34 32
8 7 4 4 7 7 10 9 8 10 11 16 16 19 9 8 10 13 15 17 24 28 31 35 39 42 48 51 54 56 54 61 62 62 55 49 46 47 50 52 53 53 51 47 44 44 40 36 37 40 40 39 37 34
10 7 7 6 7 5 9 11 9 7 11 10 16 17 19 17 9 10 9 15 20 22 24 28 30 34 39 43 43 44 40 43 48 46 41 37 34 37 41 43 44 44 45 44 42 39 39 40 43 44 43 40 38 35
Wind_Direction_850mb
235 235 234 229 232 236 240 241 242 236 235 232 226 223 227 208 203 205 199 193 198 204 191 189 186 161 161 176 149 149 101 213 63 125 143 212 166 219 81 213 185 174 166 208 155 213 273 227 244 193 193 292 302 317
231 234 233 232 230 234 237 241 241 233 236 229 227 223 224 207 202 204 195 191 191 207 193 201 199 195 197 197 166 169 179 165 171 91 273 97 202 160 168 266 307 280 198 183 189 221 233 224 257 269 295 289 293 289
228 230 229 233 225 233 232 239 241 237 231 225 225 217 221 203 202 205 198 188 181 191 174 181 192 192 193 191 191 161 196 177 190 187 157 170 222 133 189 238 226 239 192 219 19 263 247 272 293 291 282 277 285 283
225 223 224 231 223 227 226 235 237 236 237 223 223 212 216 201 202 202 197 194 181 174 143 187 193 193 200 199 201 208 195 184 173 178 155 139 169 191 234 260 219 211 153 191 265 284 282 282 288 11 37 327 278 269
220 218 220 226 217 227 220 229 234 233 238 231 221 210 211 200 199 198 195 190 180 168 157 150 190 198 200 205 210 209 204 185 172 158 113 227 217 156 258 350 248 185 197 178 220 237 236 263 353 340 359 11 275 281
213 212 217 219 219 219 222 226 228 224 244 215 213 198 201 195 187 191 157 187 185 187 146 111 171 184 191 192 199 192 188 186 185 183 211 254 240 218 270 253 245 215 212 218 224 237 246 267 285 315 325 29 14 263
209 210 215 213 218 215 217 210 225 216 245 219 203 205 196 185 190 178 195 195 177 181 160 102 84 143 160 149 151 153 169 177 189 197 218 238 230 228 245 247 248 243 243 235 235 245 264 261 263 272 274 300 315 7
204 208 207 214 207 212 209 206 221 217 235 213 196 205 186 192 181 183 173 170 168 163 151 128 83 131 170 156 139 149 155 175 196 211 225 212 199 223 255 245 259 260 254 249 244 237 243 251 258 242 257 273 306 307
202 201 202 202 203 207 199 200 209 211 221 206 186 201 173 165 162 172 150 159 167 160 142 145 146 187 165 141 128 135 165 112 209 196 236 167 231 227 233 247 260 263 232 239 215 227 232 239 247 252 257 262 277 298
193 193 192 197 201 208 199 196 194 205 204 192 168 146 161 168 171 145 136 144 159 177 141 114 128 143 157 141 106 115 151 180 210 240 183 212 252 253 251 251 255 252 239 227 225 229 224 230 236 242 245 250 253 247
187 187 190 193 196 200 204 191 197 194 202 196 160 121 146 151 144 115 141 159 149 168 166 148 147 135 176 139 147 190 167 161 196 245 169 260 271 247 263 258 254 247 241 238 235 234 190 201 222 232 236 238 236 233
187 188 190 196 198 192 185 196 188 205 201 182 160 133 142 168 132 126 139 122 170 186 158 141 143 127 143 143 111 169 131 87 235 136 86 262 251 258 261 268 266 249 233 228 227 224 219 230 239 222 238 235 226 227
184 186 190 190 190 193 192 207 185 209 193 140 136 171 180 176 127 154 154 190 162 163 159 151 119 133 134 144 94 133 130 212 128 174 231 236 263 266 259 287 278 251 239 228 226 228 230 235 235 231 222 194 180 199
181 183 187 185 184 186 191 203 194 197 175 202 169 157 199 168 192 182 188 138 140 146 148 148 117 138 130 107 144 131 131 92 265 262 238 238 251 267 252 286 234 229 219 225 224 223 223 221 221 223 219 219 233 262
179 180 181 182 181 187 190 202 187 200 232 244 196 173 180 141 12 112 123 121 133 147 141 125 87 109 98 104 46 101 62 244 214 234 229 244 250 277 258 263 238 222 222 216 215 210 208 213 217 222 228 241 244 231
177 174 181 180 181 185 189 200 174 165 231 269 232 81 21 84 31 167 133 123 144 149 142 130 120 109 170 129 118 209 160 219 239 218 233 336 271 251 273 275 254 224 220 220 208 196 193 192 194 197 196 196 189 166
172 175 179 178 176 176 187 196 164 152 170 274 226 197 171 125 180 182 154 150 156 151 159 133 125 182 107 105 212 181 199 223 214 239 259 263 285 293 280 254 256 217 206 210 208 195 181 177 178 182 179 162 155 147
178 179 174 172 170 174 176 182 118 175 192 235 230 152 196 185 164 160 155 155 159 168 155 169 127 149 172 177 228 221 232 240 238 247 258 272 276 259 266 236 219 202 215 217 208 196 190 184 175 157 156 151 145 141
171 166 166 170 174 125 91 136 143 255 265 303 296 282 182 203 177 177 170 170 176 171 144 145 144 177 204 209 199 214 221 230 244 254 254 248 267 249 230 215 211 205 206 200 189 185 178 162 158 154 150 148 145 144
158 165 172 177 184 110 117 107 172 227 268 310 117 147 97 135 175 182 169 177 178 162 170 184 205 191 183 199 216 225 227 227 230 235 245 225 228 228 219 221 215 204 196 191 180 171 167 164 159 156 154 152 154 156
151 155 165 171 145 100 122 156 144 249 302 265 187 149 105 140 136 151 177 184 191 222 221 206 201 192 186 207 223 219 210 215 218 227 233 216 217 216 222 214 202 201 199 186 178 174 172 167 161 160 161 166 174 178
144 170 124 145 100 152 129 167 114 209 262 251 193 159 132 130 135 160 178 206 245 212 209 204 203 198 204 205 200 205 215 202 187 195 209 211 222 226 224 223 211 201 194 189 184 179 169 169 168 171 177 181 180 198
156 174 77 92 103 154 147 160 158 162 133 243 179 126 158 192 170 152 188 226 236 215 216 220 216 206 211 201 198 200 196 200 206 209 195 202 265 271 227 218 217 206 194 187 183 177 176 176 181 186 186 188 203 244
155 146 107 118 113 167 128 90 191 212 149 106 183 175 228 205 169 179 208 235 217 215 220 223 212 218 213 208 204 204 203 205 202 214 228 238 243 246 223 218 217 208 202 187 182 181 185 188 190 193 198 207 224 243
110 74 137 53 103 89 81 41 286 104 196 194 135 269 220 165 184 217 214 254 216 214 218 220 223 225 225 217 207 202 193 184 187 197 203 207 209 212 217 220 212 205 195 190 189 189 191 196 201 207 213 220 232 243
121 203 158 186 309 134 190 170 206 205 157 177 222 22 18 159 161 235 219 216 220 223 220 218 218 217 219 222 213 201 194 197 200 207 207 209 216 235 239 222 206 198 196 196 199 199 204 208 211 216 218 223 235 244
122 226 159 156 155 138 65 322 320 100 157 199 198 153 154 204 220 246 222 208 214 220 222 227 229 229 226 219 220 218 209 211 218 225 223 231 232 228 238 239 223 203 197 198 202 209 217 218 217 218 220 225 230 237
113 169 155 177 136 171 144 145 180 236 236 146 124 191 209 207 216 265 221 221 219 219 213 212 218 224 224 226 223 219 219 221 222 224 228 227 226 227 230 230 214 210 209 204 203 211 218 223 224 223 226 228 230 227
217 159 145 102 87 170 198 186 215 245 186 140 151 277 261 291 270 269 258 247 230 226 217 211 211 214 216 218 217 218 220 221 218 217 220 221 219 223 224 219 204 195 203 206 202 202 213 217 217 221 226 225 223 218
354 167 95 162 156 211 230 204 222 197 216 244 249 266 273 275 284 288 274 262 237 229 230 222 212 212 214 212 211 211 214 215 219 223 227 225 225 224 218 214 212 201 207 218 212 211 205 205 210 214 214 210 206 201
316 267 246 208 232 243 234 227 242 259 260 251 251 243 253 285 292 286 263 255 243 232 224 218 211 211 209 211 212 212 211 212 213 217 221 225 229 223 218 215 213 213 203 206 207 209 213 208 206 206 203 200 193 187
289 236 173 258 277 248 245 234 234 227 222 213 229 213 246 226 263 263 253 227 221 211 210 205 201 207 205 201 202 206 211 215 213 215 217 219 218 215 213 209 205 205 203 198 194 190 203 212 202 195 190 182 179 178
281 267 256 282 322 286 226 217 236 249 218 225 218 197 204 200 238 253 229 190 199 196 197 193 192 192 193 193 194 196 200 202 203 203 204 205 205 206 202 198 194 191 190 187 191 200 197 191 184 178 174 174 172 170